Location: Beetenbrück
(52.8113°N, 9.5946°E)
Time: 16:41:22
(UTC+00:00)

CZ-4 R/B - Pass Details

Date: 14 April 2026
Orbit: 490 x 537 km, 97.5° (Epoch: 9 May)

Event Time Altitude Azimuth Distance (km) Brightness Sun altitude
Rises 19:49:14 0° 191° (S) 2,645 4.5 -12.9°
Reaches altitude 10° 19:51:32 10° 202° (SSW) 1,754 3.7 -13.2°
Maximum altitude 19:54:52 29° 264° (W) 964 3.1 -13.6°
Drops below altitude 10° 19:58:12 10° 327° (NNW) 1,742 5.1 -14.0°
Sets 20:00:29 0° 338° (NNW) 2,625 5.9 -14.3°
